EN

Hourly Weather Bolshie Leznevichi

Today, 9 March, Tuesday

Time Temperature Precipitation Wind Pressure Humidity
00:00 -10°C° 0 mm 2 mps 737 mmHg 91%
01:00 -12°C° 0 mm 2 mps 737 mmHg 92%
02:00 -12°C° 0 mm 2 mps 738 mmHg 92%
03:00 -12°C° 0 mm 2 mps 738 mmHg 93%
04:00 -13°C° 0 mm 2 mps 738 mmHg 93%
05:00 -13°C° 0 mm 2 mps 738 mmHg 94%
06:00 -13°C° 0 mm 2 mps 739 mmHg 93%
07:00 -12°C° 0 mm 2 mps 739 mmHg 93%
08:00 -10°C° 0 mm 1 mps 739 mmHg 93%
09:00 -9°C° 0 mm 2 mps 740 mmHg 87%
10:00 -8°C° 0 mm 2 mps 740 mmHg 81%
11:00 -6°C° 0 mm 2 mps 740 mmHg 75%
12:00 -6°C° 0 mm 2 mps 741 mmHg 72%
13:00 -3°C° 0 mm 1 mps 741 mmHg 68%
14:00 -3°C° 0 mm 1 mps 741 mmHg 65%
15:00 -3°C° 0 mm 1 mps 741 mmHg 69%
16:00 -4°C° 0 mm 1 mps 740 mmHg 73%
17:00 -4°C° 0 mm 1 mps 740 mmHg 77%
18:00 -6°C° 0 mm 1 mps 741 mmHg 79%
19:00 -7°C° 0 mm 1 mps 741 mmHg 81%
20:00 -8°C° 0 mm 1 mps 741 mmHg 83%
21:00 -9°C° 0 mm 1 mps 741 mmHg 83%
22:00 -9°C° 0 mm 1 mps 741 mmHg 84%
23:00 -9°C° 0 mm 1 mps 741 mmHg 85%

Tomorrow, 10 March, Wednesday

Time Temperature Precipitation Wind Pressure Humidity
00:00 -10°C° 0 mm 2 mps 741 mmHg 85%
01:00 -12°C° 0 mm 2 mps 741 mmHg 86%
02:00 -12°C° 0 mm 2 mps 741 mmHg 86%
03:00 -12°C° 0 mm 2 mps 741 mmHg 86%
04:00 -12°C° 0 mm 2 mps 741 mmHg 87%
05:00 -13°C° 0 mm 2 mps 741 mmHg 87%
06:00 -12°C° 0 mm 2 mps 741 mmHg 87%
07:00 -12°C° 0 mm 2 mps 741 mmHg 86%
08:00 -12°C° 0 mm 2 mps 741 mmHg 86%
09:00 -9°C° 0 mm 2 mps 741 mmHg 83%
10:00 -7°C° 0 mm 2 mps 741 mmHg 80%
11:00 -5°C° 0 mm 2 mps 742 mmHg 76%
12:00 -5°C° 0 mm 2 mps 741 mmHg 73%
13:00 -4°C° 0 mm 2 mps 741 mmHg 70%
14:00 -3°C° 0 mm 2 mps 741 mmHg 67%
15:00 -2°C° 0 mm 1 mps 741 mmHg 70%
16:00 -2°C° 0 mm 1 mps 741 mmHg 74%
17:00 -3°C° 0 mm 1 mps 741 mmHg 77%
18:00 -4°C° 0 mm 1 mps 741 mmHg 79%
19:00 -6°C° 0 mm 1 mps 741 mmHg 81%
20:00 -8°C° 0 mm 1 mps 741 mmHg 83%
21:00 -9°C° 0 mm 2 mps 741 mmHg 83%
22:00 -9°C° 0 mm 2 mps 742 mmHg 83%
23:00 -10°C° 0 mm 2 mps 742 mmHg 84%

Day after tomorrow, 11 March, Thursday

Time Temperature Precipitation Wind Pressure Humidity
00:00 -10°C° 0 mm 2 mps 742 mmHg 83%
01:00 -10°C° 0 mm 2 mps 742 mmHg 83%
02:00 -10°C° 0 mm 2 mps 742 mmHg 83%
03:00 -10°C° 0 mm 2 mps 742 mmHg 83%
04:00 -10°C° 0 mm 2 mps 741 mmHg 82%
05:00 -10°C° 0 mm 2 mps 741 mmHg 82%
06:00 -10°C° 0 mm 2 mps 741 mmHg 82%
07:00 -10°C° 0 mm 2 mps 741 mmHg 82%
08:00 -9°C° 0 mm 2 mps 742 mmHg 82%
09:00 -8°C° 0 mm 3 mps 742 mmHg 81%
10:00 -8°C° 0 mm 4 mps 741 mmHg 80%
11:00 -5°C° 0 mm 4 mps 741 mmHg 79%
12:00 -5°C° 0 mm 5 mps 741 mmHg 78%
13:00 -5°C° 0 mm 5 mps 741 mmHg 78%
14:00 -4°C° 0 mm 5 mps 741 mmHg 78%
15:00 -4°C° 0 mm 5 mps 740 mmHg 79%
16:00 -4°C° 0 mm 5 mps 740 mmHg 79%
17:00 -5°C° 0 mm 5 mps 739 mmHg 80%
18:00 -5°C° 0 mm 5 mps 739 mmHg 80%
19:00 -6°C° 0 mm 5 mps 739 mmHg 80%
20:00 -6°C° 0 mm 6 mps 738 mmHg 80%
21:00 -6°C° 0 mm 6 mps 738 mmHg 80%
22:00 -6°C° 0 mm 6 mps 737 mmHg 80%
23:00 -8°C° 0 mm 7 mps 737 mmHg 81%

12 March, Friday

Time Temperature Precipitation Wind Pressure Humidity
00:00 -7°C° 0 mm 7 mps 736 mmHg 80%
01:00 -7°C° 0 mm 7 mps 736 mmHg 80%
02:00 -7°C° 0 mm 8 mps 735 mmHg 79%
03:00 -7°C° 0 mm 8 mps 734 mmHg 79%
04:00 -7°C° 0 mm 8 mps 733 mmHg 79%
05:00 -7°C° 0 mm 8 mps 733 mmHg 78%
06:00 -7°C° 0.3 mm 8 mps 732 mmHg 83%
07:00 -7°C° 0.3 mm 8 mps 731 mmHg 88%
08:00 -8°C° 0.3 mm 9 mps 731 mmHg 93%
09:00 -6°C° 1.5 mm 9 mps 730 mmHg 94%
10:00 -6°C° 1.5 mm 9 mps 730 mmHg 94%
11:00 -5°C° 1.5 mm 9 mps 730 mmHg 95%
12:00 -5°C° 0.7 mm 8 mps 730 mmHg 96%
13:00 -3°C° 0.7 mm 7 mps 730 mmHg 97%
14:00 -2°C° 0.7 mm 5 mps 730 mmHg 99%
15:00 -2°C° 0.5 mm 5 mps 730 mmHg 99%
16:00 -1°C° 0.5 mm 5 mps 730 mmHg 99%
17:00 -1°C° 0.5 mm 5 mps 730 mmHg 99%
18:00 -1°C° 0.1 mm 5 mps 731 mmHg 98%
19:00 -1°C° 0.1 mm 4 mps 731 mmHg 97%
20:00 -2°C° 0.1 mm 4 mps 732 mmHg 96%
21:00 -1°C° 0 mm 3 mps 732 mmHg 96%
22:00 -1°C° 0 mm 3 mps 733 mmHg 96%
23:00 -2°C° 0 mm 3 mps 733 mmHg 96%

13 March, Saturday

Time Temperature Precipitation Wind Pressure Humidity
00:00 -2°C° 0 mm 3 mps 733 mmHg 94%
01:00 -2°C° 0 mm 3 mps 733 mmHg 93%
02:00 -3°C° 0 mm 4 mps 733 mmHg 92%
03:00 -3°C° 0 mm 4 mps 733 mmHg 91%
04:00 -3°C° 0 mm 4 mps 733 mmHg 90%
05:00 -3°C° 0 mm 4 mps 733 mmHg 90%
06:00 -3°C° 0 mm 4 mps 733 mmHg 89%
07:00 -4°C° 0 mm 5 mps 733 mmHg 89%
08:00 -2°C° 0 mm 5 mps 733 mmHg 88%
09:00 -2°C° 0 mm 5 mps 733 mmHg 90%
10:00 -1°C° 0 mm 5 mps 732 mmHg 93%
11:00 0°C° 0 mm 5 mps 732 mmHg 95%
12:00 0°C° 0 mm 5 mps 732 mmHg 94%
13:00 0°C° 0 mm 5 mps 732 mmHg 93%
14:00 +1°C° 0 mm 6 mps 731 mmHg 93%
15:00 0°C° 0.6 mm 5 mps 731 mmHg 94%
16:00 0°C° 0.6 mm 5 mps 731 mmHg 96%
17:00 -1°C° 0.6 mm 5 mps 731 mmHg 97%
18:00 -1°C° 0 mm 5 mps 731 mmHg 97%
19:00 -1°C° 0 mm 4 mps 731 mmHg 96%
20:00 -2°C° 0 mm 4 mps 731 mmHg 95%
21:00 -2°C° 0 mm 4 mps 731 mmHg 94%
22:00 -2°C° 0 mm 4 mps 731 mmHg 94%
23:00 -2°C° 0 mm 4 mps 731 mmHg 93%

14 March, Sunday

Time Temperature Precipitation Wind Pressure Humidity
00:00 -2°C° 0 mm 4 mps 731 mmHg 93%
01:00 -2°C° 0 mm 4 mps 730 mmHg 93%
02:00 -2°C° 0 mm 4 mps 730 mmHg 92%
03:00 -1°C° 0 mm 5 mps 730 mmHg 93%
04:00 -1°C° 0 mm 5 mps 729 mmHg 94%
05:00 -1°C° 0 mm 5 mps 729 mmHg 95%
06:00 0°C° 0.1 mm 5 mps 729 mmHg 95%
07:00 0°C° 0.1 mm 5 mps 728 mmHg 95%
08:00 0°C° 0.1 mm 5 mps 728 mmHg 95%
09:00 +1°C° 0 mm 6 mps 728 mmHg 93%
10:00 +1°C° 0 mm 6 mps 728 mmHg 92%
11:00 +2°C° 0 mm 6 mps 728 mmHg 90%
12:00 +2°C° 0 mm 6 mps 728 mmHg 89%
13:00 +3°C° 0 mm 6 mps 728 mmHg 88%
14:00 +3°C° 0 mm 6 mps 728 mmHg 86%
15:00 +3°C° 0.2 mm 5 mps 728 mmHg 88%
16:00 +2°C° 0.2 mm 5 mps 727 mmHg 90%
17:00 +3°C° 0.2 mm 4 mps 727 mmHg 92%
18:00 +1°C° 0.4 mm 4 mps 727 mmHg 92%
19:00 +2°C° 0.4 mm 3 mps 727 mmHg 92%
20:00 +2°C° 0.4 mm 3 mps 727 mmHg 92%
21:00 +1°C° 0.9 mm 3 mps 727 mmHg 94%
22:00 +1°C° 0.9 mm 3 mps 727 mmHg 95%
23:00 +2°C° 0.9 mm 2 mps 727 mmHg 97%
Show more